OpenBCM V1.13 (Linux)

Packet Radio Mailbox

DB0FHN

[JN59NK Nuernberg]

 Login: GUEST





  
LU9DCE > KEP      22.02.19 22:04l 247 Lines 12210 Bytes #999 (0) @ WW
BID : 18860_LU9DCE
Read: DF7EAV DK3UZ GUEST
Subj: TLE 22 02
Path: DB0FHN<DB0BLO<DB0ERF<DB0RES<IR2UBX<IW8PGT<CX2SA<EA2RCF<LU9DCE
Sent: 190222/1942Z 18860@LU9DCE.TOR.BA.ARG.SOAM LinBPQ6.0.18

            __    _  _  ___  ____   ___  ____    ____  ____  ____
           (  )  / )( \/ _ \(    \ / __)(  __)  (  _ \(  _ \/ ___)
           / (_/\) \/ (\__  )) D (( (__  ) _)    ) _ ( ) _ (\___ \
           \____/\____/(___/(____/ \___)(____)  (____/(____/(____/
               ESTACION DE PACKET RADIO - BUENOS AIRES (GF05OM)
                   BOLETINES INFORMATIVOS PROGRAMADOS (BIP)
                          HELLOCODELINUX@GMAIL.COM

+----------------------------------------------------------------------------+
OSCAR 7
1  7530U 74089B   19053.19690022 -.00000048  00000-0 -20757-4 0  9999
2  7530 101.7284  22.1263 0011913 211.0767 220.6708 12.53636737 25921
OSCAR 11 (UoSAT 2)
1 14781U 84021B   19052.84412281  .00000053  00000-0  12709-4 0  9994
2 14781  97.6235  83.0109 0008151 353.9808   6.1307 14.83064944881442
OSCAR 19 (LUSAT)
1 20442U 90005G   19052.84800111  .00000005  00000-0  17955-4 0  9992
2 20442  98.6373 355.1204 0012580 130.2942 229.9343 14.32917676519640
EYESAT A
1 22825U 93061C   19052.86510016 -.00000015  00000-0  12158-4 0  9990
2 22825  98.8937  38.8946 0008135 346.5784  13.5180 14.30051681325251
ITAMSAT
1 22826U 93061D   19052.96390563 -.00000024  00000-0  85648-5 0  9990
2 22826  98.8877  39.0017 0008464 334.5350  25.5414 14.30384578325468
RADIO ROSTO
1 23439U 94085A   19052.45781897 -.00000012 +00000-0 +85989-3 0  9999
2 23439 064.8182 305.7124 0148835 135.6960 278.9937 11.27567805994675
JAS 2
1 24278U 96046B   19053.08798384 -.00000014  00000-0  20733-4 0  9998
2 24278  98.5191 222.4174 0350399 182.3113 177.6423 13.53089327112036
TECHSAT 1B
1 25397U 98043D   19052.81235998 -.00000017  00000-0  11889-4 0  9992
2 25397  98.6779 354.4454 0001951  49.1241 311.0106 14.23660464 71242
ISS (ZARYA)
1 25544U 98067A   19053.59574634  .00000827  00000-0  20308-4 0  9995
2 25544  51.6404 211.0073 0005969  55.5128  34.3711 15.53283804157451
PCSAT
1 26931U 01043C   19052.81327735 -.00000024  00000-0  22621-4 0  9996
2 26931  67.0517 305.2818 0005355 271.0480  89.0008 14.30532856908252
SAUDISAT 1C
1 27607U 02058C   19053.44727567 -.00000031  00000-0  16582-4 0  9998
2 27607  64.5549  44.9907 0082128 278.6091  80.5712 14.75521756869889
CUTE-1
1 27844U 03031E   19053.49725003  .00000028  00000-0  32513-4 0  9998
2 27844  98.6867  63.4338 0009987  13.9688 346.1764 14.22161260811776
CUBESAT XI 4
1 27848U 03031J   19052.47116060  .00000017  00000-0  27786-4 0  9990
2 27848  98.6947  62.8956 0010148  27.5649 332.6065 14.21758569811482
MOZHAYETS 4
1 27939U 03042A   19053.39552908  .00000056  00000-0  18599-4 0  9995
2 27939  98.0200 191.6119 0014368  77.5850 282.6957 14.66755036823491
CUBESAT XI 5
1 28895U 05043F   19053.22242953  .00000096  00000-0  27310-4 0  9993
2 28895  97.9390 200.0747 0016695   4.2096 355.9244 14.63632159710447
CUTE-1.7+APD II
1 32785U 08021C   19052.76695313  .00000172  00000-0  24215-4 0  9991
2 32785  97.5481  58.0115 0011677 293.5724  66.4267 14.88252525586298
DELFI C3
1 32789U 08021G   19052.74132675  .00001158  00000-0  81987-4 0  9994
2 32789  97.4809 105.8589 0013089 159.2207 200.9556 15.06669099589359
SEEDS
1 32791U 08021J   19052.77977064  .00000362  00000-0  42191-4 0  9999
2 32791  97.5301  63.8546 0011873 267.1078  92.8782 14.90738058586697
YUBELEINY
1 32953U 08025A   19053.50616177  .00000020  00000-0  75656-4 0  9993
2 32953  82.5010 216.9957 0019575  25.4410 334.7627 12.43087670487876
PRISM (HITOMI)
1 33493U 09002B   19053.32627472  .00000576  00000-0  56241-4 0  9994
2 33493  98.1241 329.8763 0014228 203.5623 156.4947 14.96521003547749
KKS-1 (KISEKI)
1 33499U 09002H   19053.50302611  .00000064  00000-0  17483-4 0  9992
2 33499  98.3546 248.4534 0008531 209.9216 150.1505 14.75408266542091
SWISSCUBE
1 35932U 09051B   19053.06646508  .00000090  00000-0  31334-4 0  9997
2 35932  98.5723 215.7135 0008184 156.5592 203.5979 14.56245987499802
BEESAT
1 35933U 09051C   19052.87065209  .00000073  00000-0  27440-4 0  9993
2 35933  98.5758 217.2100 0006149 167.1616 192.9738 14.56339973499885
ITUPSAT 1
1 35935U 09051E   19052.44872012  .00000052  00000-0  23174-4 0  9993
2 35935  98.5867 217.0210 0008452 167.7847 192.3556 14.55505245499584
XIWANG-1 (HOPE-1)
1 36122U 09072B   19052.68845702 -.00000027  00000-0  41056-4 0  9999
2 36122 100.0724  60.5729 0006792 255.0133 105.0214 13.16348389441482
TISAT 1
1 36799U 10035E   19053.38498209  .00000203  00000-0  26604-4 0  9991
2 36799  98.1369 201.8075 0013631 106.6910 253.5804 14.91009128467438
JUGNU
1 37839U 11058B   19051.91563942  .00000320  00000-0  28947-4 0  9999
2 37839  19.9620 328.9839 0019094 108.9618 319.9300 14.12642169380582
SRMSAT
1 37841U 11058D   19052.00568685  .00000287  00000-0  12706-4 0  9990
2 37841  19.9732  22.7758 0011740 344.8649  72.5851 14.10624451380050
M-CUBED/EXP-1 PRIME
1 37855U 11061F   19053.47822911  .00001003  00000-0  58252-4 0  9999
2 37855 101.7278 249.3358 0174386  61.1704 300.6889 15.05151814399295
HORYU 2
1 38340U 12025D   19052.67911458  .00000140  00000-0  28582-4 0  9990
2 38340  98.3442  87.6677 0012542 133.4073 226.8182 14.75669596363904
STRAND 1
1 39090U 13009E   19052.86121469  .00000022  00000-0  22986-4 0  9993
2 39090  98.4991 260.6943 0008044 277.4551  82.5720 14.35071687313632
SOMP
1 39134U 13015E   19052.77282139  .00001389  00000-0  73669-4 0  9992
2 39134  64.8632  39.1366 0019815 322.0821  37.8909 15.19829756322827
BEESAT 3
1 39135U 13015F   19052.81932990  .00000875  00000-0  53624-4 0  9993
2 39135  64.8701  55.6773 0009998 278.5815  81.4177 15.17217352322518
BEESAT 2
1 39136U 13015G   19052.48345299 +.00000985 +00000-0 +60023-4 0  9990
2 39136 064.8690 060.2291 0010835 288.0091 071.9853 15.16649998322000
CUBEBUG 1
1 39153U 13018D   19053.51880502  .00000178  00000-0  30211-4 0  9998
2 39153  97.9756 152.3388 0016323 210.9669 149.0582 14.80515122314628
ZACUBE
1 39417U 13066B   19052.82708571  .00000212  00000-0  32890-4 0  9996
2 39417  97.5697  72.8541 0060243  58.0134 302.6916 14.81057614283740
TRITON 1
1 39427U 13066M   19052.88477001  .00000118  00000-0  26730-4 0  9995
2 39427  97.6643  37.5676 0113877 178.7877 181.3627 14.67782217281204
GOMX 1
1 39430U 13066Q   19053.46366627  .00000083  00000-0  24554-4 0  9998
2 39430  97.7309  17.7768 0149805 260.7693  97.6540 14.59199397279659
HUMSAT D
1 39433U 13066T   19053.13130735  .00000257  00000-0  30548-4 0  9997
2 39433  97.5708 105.3019 0029929 332.0559  27.9052 14.92087054285692
CUBEBUG 2
1 39440U 13066AA  19052.79592758  .00000176  00000-0  31252-4 0  9996
2 39440  97.6005  58.1517 0081815 104.5088 256.5216 14.75795340282739
FUNCUBE 1
1 39444U 13066AE  19053.02672057  .00000255  00000-0  37617-4 0  9997
2 39444  97.5689  74.8679 0059270  51.8897 308.7640 14.81864514282655
UWE-3
1 39446U 13066AG  19052.79721319  .00000197  00000-0  32582-4 0  9999
2 39446  97.5838  65.0118 0071590  81.7473 279.1849 14.78330369281994
SPROUT
1 39770U 14029E   19053.50817655  .00000349  00000-0  44904-4 0  9998
2 39770  97.8787 157.6291 0010165 105.3985 254.8363 14.87181962257562
UNISAT 6
1 40012U 14033C   19053.18332903  .00000158  00000-0  30893-4 0  9996
2 40012  97.7750 284.6885 0059639 113.0888 247.6623 14.73928821251526
DUCHIFAT 1
1 40021U 14033M   19053.34326400  .00000413  00000-0  48083-4 0  9993
2 40021  97.9221 337.5795 0014348  74.9523 285.3281 14.90527262254219
QB50P1
1 40025U 14033R   19052.36090858  .00000215  00000-0  28938-4 0  9990
2 40025  97.9069 332.2379 0013942  85.8461 274.4349 14.88869132253860
CHUBUSAT 1
1 40300U 14070C   19053.22123461  .00000474  00000-0  23714-4 0  9994
2 40300  97.3387 130.2965 0021201 102.5963 322.5866 15.21918295238305
NUDT-PHONESAT
1 40900U 15049B   19053.51470134  .00001569  00000-0  71102-4 0  9991
2 40900  97.4397  64.0146 0011695 227.3810 235.4777 15.22291018189981
ZDPS 2A
1 40901U 15049C   19053.43656633  .00000535  00000-0  30012-4 0  9990
2 40901  97.4598  60.9540 0011946 245.1218 221.0591 15.17512457189608
ZDPS 2B
1 40902U 15049D   19053.44519870  .00000536  00000-0  30254-4 0  9992
2 40902  97.4523  58.6148 0012076 241.4276 223.3750 15.17289279189585
XW-2A
1 40903U 15049E   19053.40247282  .00001585  00000-0  39929-4 0  9997
2 40903  97.3540  95.4319 0012556 199.9818 285.8242 15.41385955192336
KAITUO 1A
1 40904U 15049F   19053.45436081  .00000206  00000-0  14450-4 0  9991
2 40904  97.4647  57.4735 0013131 249.1867 253.1758 15.15250316189393
OBJECT G
1 40905U 15049G   19053.44577634  .00000242  00000-0  16828-4 0  9992
2 40905  97.4668  55.1648 0014157 242.1578 221.8804 15.14186567189283
XW-2C
1 40906U 15049H   19053.53886885  .00000745  00000-0  42770-4 0  9997
2 40906  97.4648  57.5654 0013302 239.1448 238.3816 15.15516739189407
XW-2D
1 40907U 15049J   19053.39657924  .00000758  00000-0  43221-4 0  9998
2 40907  97.4629  57.1050 0012586 237.2447 230.6595 15.15691921189398
LILACSAT 2
1 40908U 15049K   19053.38753672  .00000303  00000-0  20437-4 0  9995
2 40908  97.4749  56.1169 0014316 241.9856 223.9370 15.13706809189218
XW-2F
1 40910U 15049M   19053.53420219  .00000956  00000-0  51653-4 0  9991
2 40910  97.4612  59.0093 0013557 228.4945 256.7545 15.17042866189402
XW-2B
1 40911U 15049N   19053.35788373  .00000443  00000-0  26776-4 0  9999
2 40911  97.4652  57.6856 0012581 237.8494 229.1989 15.15623905189286
KAITUO 1B
1 40912U 15049P   19053.40801391  .00000997  00000-0  50363-4 0  9995
2 40912  97.4499  62.2834 0013843 213.3891 254.5662 15.19321253189652
TIANWANG 1C (TW-1C)
1 40926U 15051B   19053.52329215  .00008649  00000-0  13898-3 0  9999
2 40926  97.1526  99.9470 0010879  84.3630  22.3021 15.53188882192113
